Change the Weather History Date:

Friday, February 1, 2013

  Actual Average Record
Temperature  
Mean Temperature 34 °F -  
Max Temperature 48 °F 44 °F 60 °F (2003)
Min Temperature 21 °F 20 °F -1 °F (1985)
Degree Days  
Heating Degree Days 30    
Moisture  
Dew Point 23 °F    
Average Humidity 66    
Maximum Humidity 88    
Minimum Humidity 28    
Precipitation  
Precipitation 0.00 in - - ()
Sea Level Pressure  
Sea Level Pressure 30.33 in    
Wind  
Wind Speed 5 mph (NNW)    
Max Wind Speed 14 mph    
Max Gust Speed 20 mph    
Visibility 10 miles    
Events      
Averages and records for this station are not official NWS values.
T = Trace of Precipitation, MM = Missing Value Source: NWS Daily Summary

Daily Weather History Graph

Daily Weather History Graph

Search for Another Location

Airport or City:

Trip Planner

Search our weather history database for the weather conditions in past years. The results will help you decide how hot, cold, wet, or windy it might be!

Date:

Astronomy

Feb. 01, 2013 Rise Set
Actual Time 7:14 AM MST 5:38 PM MST
Civil Twilight 6:47 AM MST 6:06 PM MST
Nautical Twilight 6:16 AM MST 6:37 PM MST
Astronomical Twilight 5:46 AM MST 7:07 PM MST
Moon 11:38 PM MST (2/1) 10:00 AM MST (2/1)
Length of Visible Light 11h 18m
Length of Day
10h 24m
Waning Gibbous, 69% of the Moon is Illuminated
Feb 1
Waning Gibbous
Feb 3
Last Quarter
Feb 10
New
Feb 17
First Quarter
Feb 25
Full

Hourly Weather History & Observations

Time (MST) Temp. Windchill Dew Point Humidity Pressure Visibility Wind Dir Wind Speed Gust Speed Precip Events Conditions
12:53 AM 26.1 °F 21.9 °F 21.9 °F 84% 30.32 in 10.0 mi East 3.5 mph - N/A   Clear
1:53 AM 26.1 °F - 23.0 °F 88% 30.31 in 10.0 mi Calm Calm - N/A   Clear
2:53 AM 25.0 °F 20.7 °F 21.9 °F 88% 30.32 in 10.0 mi East 3.5 mph - N/A   Clear
3:53 AM 23.0 °F 15.8 °F 19.9 °F 88% 30.33 in 10.0 mi ENE 5.8 mph - N/A   Clear
4:53 AM 24.1 °F 16.0 °F 19.9 °F 84% 30.32 in 10.0 mi East 6.9 mph - N/A   Clear
5:53 AM 23.0 °F 17.0 °F 19.9 °F 88% 30.35 in 10.0 mi East 4.6 mph - N/A   Clear
6:53 AM 21.0 °F 14.6 °F 18.0 °F 88% 30.37 in 10.0 mi East 4.6 mph - N/A   Clear
7:53 AM 24.1 °F 18.2 °F 19.9 °F 84% 30.37 in 10.0 mi East 4.6 mph - N/A   Clear
8:53 AM 28.0 °F 22.8 °F 21.9 °F 78% 30.38 in 10.0 mi ESE 4.6 mph - N/A   Clear
9:53 AM 32.0 °F 25.6 °F 25.0 °F 75% 30.37 in 10.0 mi ESE 6.9 mph - N/A   Clear
10:53 AM 36.0 °F - 26.1 °F 67% 30.37 in 10.0 mi Calm Calm - N/A   Clear
11:53 AM 39.9 °F - 25.0 °F 55% 30.34 in 10.0 mi Calm Calm - N/A   Clear
12:53 PM 44.1 °F 42.5 °F 25.0 °F 47% 30.29 in 10.0 mi Variable 3.5 mph - N/A   Clear
1:53 PM 46.9 °F - 24.1 °F 41% 30.27 in 10.0 mi West 11.5 mph - N/A   Clear
2:53 PM 48.0 °F - 25.0 °F 41% 30.25 in 10.0 mi West 12.7 mph 19.6 mph N/A   Clear
3:53 PM 46.9 °F - 26.1 °F 44% 30.27 in 10.0 mi West 12.7 mph 19.6 mph N/A   Clear
4:53 PM 45.0 °F 38.5 °F 24.1 °F 44% 30.28 in 10.0 mi West 13.8 mph - N/A   Clear
5:53 PM 39.9 °F 34.5 °F 24.1 °F 53% 30.30 in 10.0 mi West 8.1 mph - N/A   Clear
6:53 PM 35.1 °F 31.0 °F 24.1 °F 64% 30.35 in 10.0 mi WSW 4.6 mph - N/A   Clear
7:53 PM 35.1 °F 31.0 °F 24.1 °F 64% 30.34 in 10.0 mi West 4.6 mph - N/A   Clear
8:53 PM 35.1 °F - 25.0 °F 67% 30.34 in 10.0 mi Calm Calm - N/A   Clear
9:53 PM 35.1 °F - 25.0 °F 67% 30.35 in 10.0 mi Calm Calm - N/A   Clear
10:53 PM 33.1 °F 24.9 °F 26.1 °F 75% 30.36 in 10.0 mi West 10.4 mph - N/A   Clear
11:53 PM 32.0 °F 25.6 °F 25.0 °F 75% 30.36 in 10.0 mi West 6.9 mph - N/A   Clear